GW4497 Weather Reports


Display with metric or nautical units.
time (UTC)temp
F
wind
direction
speed
MPH
gust
MPH
rain 1hr
in
rain 24hr
in
rain mn
in
humidity
%
barometer
mb
20260507234503 52 341 1.0 3.0 0.00 0.00 0.00 87 1013.9
20260507234003 52 6 1.0 3.0 0.00 0.00 0.00 87 1013.9
20260507233718 52 357 1.0 4.0 0.00 0.00 0.00 87 1014.1
20260507233003 52 357 2.0 4.0 0.00 0.00 0.00 87 1014.0
20260507232503 52 9 2.0 4.0 0.00 0.00 0.00 87 1013.8
20260507232003 52 20 2.0 4.0 0.00 0.00 0.00 87 1014.0
20260507231503 53 25 2.0 4.0 0.00 0.00 0.00 87 1014.2
20260507231003 53 48 2.0 4.0 0.00 0.00 0.00 86 1014.2
20260507230503 53 49 2.0 4.0 0.00 0.00 0.00 86 1014.2
20260507230003 53 13 1.0 4.0 0.00 0.00 0.00 86 1014.4
20260507225503 53 342 1.0 4.0 0.00 0.00 0.00 86 1014.6
20260507225003 53 332 1.0 4.0 0.00 0.00 0.00 86 1014.4
20260507224504 53 3 1.0 3.0 0.00 0.00 0.00 86 1014.4
20260507224003 53 21 1.0 4.0 0.00 0.00 0.00 86 1014.4
20260507223503 53 351 1.0 4.0 0.00 0.00 0.00 86 1014.5
20260507223003 53 306 1.0 4.0 0.00 0.00 0.00 86 1014.3
20260507222718 53 260 1.0 3.0 0.00 0.00 0.00 86 1014.5
20260507222003 53 354 1.0 3.0 0.00 0.00 0.00 85 1014.3
20260507221503 54 70 1.0 3.0 0.00 0.00 0.00 85 1014.4
20260507221003 53 270 1.0 3.0 0.00 0.00 0.00 85 1014.4
20260507220503 53 305 2.0 5.0 0.00 0.00 0.00 85 1014.6
20260507220003 54 330 3.0 5.0 0.00 0.00 0.00 85 1014.5
20260507215503 54 344 2.0 5.0 0.00 0.00 0.00 85 1014.6
20260507215003 54 13 1.0 4.0 0.00 0.00 0.00 85 1014.6
20260507214503 54 58 1.0 3.0 0.00 0.00 0.00 85 1014.5
20260507214218 54 105 1.0 3.0 0.00 0.00 0.00 85 1014.4
20260507213503 54 218 1.0 3.0 0.00 0.00 0.00 84 1014.5
20260507213218 54 238 1.0 3.0 0.00 0.00 0.00 84 1014.7
20260507212503 55 5 1.0 4.0 0.00 0.00 0.00 84 1014.6
20260507212003 55 10 2.0 4.0 0.00 0.00 0.00 84 1014.7
20260507211503 55 3 2.0 4.0 0.00 0.00 0.00 84 1014.7
20260507211003 55 26 2.0 4.0 0.00 0.00 0.00 84 1014.6
20260507210503 55 22 1.0 4.0 0.00 0.00 0.00 84 1014.6
20260507210003 55 309 1.0 3.0 0.00 0.00 0.00 84 1014.7
20260507205503 55 336 1.0 4.0 0.00 0.00 0.00 84 1014.7
20260507205003 55 351 2.0 4.0 0.00 0.00 0.00 84 1014.7
20260507204503 55 329 1.0 3.0 0.00 0.00 0.00 84 1014.6
20260507204003 55 286 1.0 4.0 0.00 0.00 0.00 84 1014.7
20260507203503 55 347 1.0 4.0 0.00 0.00 0.00 83 1014.6
20260507203218 55 359 1.0 4.0 0.00 0.00 0.00 84 1014.6
20260507202503 56 277 1.0 3.0 0.00 0.00 0.00 84 1014.5
20260507202003 56 270 1.0 2.0 0.00 0.00 0.00 83 1014.6
20260507201503 56 267 1.0 2.0 0.00 0.00 0.00 83 1014.5
20260507201003 56 258 1.0 3.0 0.00 0.00 0.00 83 1014.6
20260507200503 56 253 1.0 3.0 0.00 0.00 0.00 82 1014.3
20260507200003 56 266 1.0 3.0 0.00 0.00 0.00 82 1014.2
20260507195503 56 265 2.0 3.0 0.00 0.00 0.00 82 1014.1
20260507195003 57 261 1.0 3.0 0.00 0.00 0.00 81 1014.1
20260507194503 58 260 1.0 3.0 0.00 0.00 0.00 81 1013.9
20260507194003 58 268 1.0 3.0 0.00 0.00 0.00 81 1013.9
20260507193503 58 334 2.0 3.0 0.00 0.00 0.00 80 1013.9
20260507193003 58 304 1.0 3.0 0.00 0.00 0.00 80 1013.8
20260507192503 58 254 2.0 4.0 0.00 0.00 0.00 80 1013.6
20260507192003 58 298 2.0 5.0 0.00 0.00 0.00 79 1013.6
20260507191503 59 332 2.0 5.0 0.00 0.00 0.00 79 1013.4
20260507191003 59 357 1.0 5.0 0.00 0.00 0.00 78 1013.4
20260507190503 60 144 1.0 3.0 0.00 0.00 0.00 77 1013.2
20260507190004 60 339 1.0 4.0 0.00 0.00 0.00 77 1013.5
20260507185503 60 357 2.0 4.0 0.00 0.00 0.00 77 1013.2
20260507185003 60 35 2.0 3.0 0.00 0.00 0.00 76 1013.1
20260507184716 60 66 2.0 5.0 0.00 0.00 0.00 76 1013.1
20260507184217 60 67 2.0 5.0 0.00 0.00 0.00 76 1013.2
20260507183503 61 106 1.0 3.0 0.00 0.00 0.00 75 1013.3
20260507183003 61 144 2.0 5.0 0.00 0.00 0.00 74 1013.0
20260507182503 61 129 2.0 5.0 0.00 0.00 0.00 74 1012.9
20260507182003 61 108 2.0 5.0 0.00 0.00 0.00 74 1012.8
20260507181503 61 103 2.0 5.0 0.00 0.00 0.00 73 1013.0
20260507181003 61 69 2.0 5.0 0.00 0.00 0.00 73 1012.8
20260507180503 61 86 3.0 6.0 0.00 0.00 0.00 73 1012.9
20260507180003 61 130 4.0 9.0 0.00 0.00 0.00 74 1012.9
20260507175503 61 133 5.0 10.0 0.00 0.00 0.00 74 1012.7
20260507175003 61 126 4.0 10.0 0.00 0.00 0.00 73 1012.8
20260507174503 61 134 4.0 8.0 0.00 0.00 0.00 73 1012.8
20260507174003 61 133 5.0 9.0 0.00 0.00 0.00 72 1012.9
20260507173503 61 127 4.0 9.0 0.00 0.00 0.00 72 1013.0
20260507173004 62 121 5.0 9.0 0.00 0.00 0.00 71 1012.8
20260507172503 61 111 5.0 9.0 0.00 0.00 0.00 72 1012.6
20260507172003 61 107 5.0 10.0 0.00 0.00 0.00 71 1012.7
20260507171718 62 118 5.0 10.0 0.00 0.00 0.00 71 1012.5
20260507171003 62 127 5.0 10.0 0.00 0.00 0.00 71 1012.6
20260507170503 62 126 5.0 11.0 0.00 0.00 0.00 71 1012.6
20260507170217 62 130 5.0 11.0 0.00 0.00 0.00 70 1012.5
20260507165503 62 118 5.0 11.0 0.00 0.00 0.00 70 1012.5
20260507165217 61 114 5.0 11.0 0.00 0.00 0.00 71 1012.8
20260507164503 62 114 5.0 11.0 0.00 0.00 0.00 70 1012.7
20260507164003 62 106 5.0 12.0 0.00 0.00 0.00 69 1012.3
20260507163503 62 113 6.0 13.0 0.00 0.00 0.00 69 1012.6
20260507163003 62 125 5.0 13.0 0.00 0.00 0.00 69 1012.6
20260507162503 62 134 5.0 11.0 0.00 0.00 0.00 68 1012.3
20260507162216 62 132 5.0 9.0 0.00 0.00 0.00 68 1012.5
20260507161503 62 120 5.0 12.0 0.00 0.00 0.00 68 1012.5
20260507161003 62 126 5.0 13.0 0.00 0.00 0.00 68 1012.6
20260507160717 62 139 6.0 15.0 0.00 0.00 0.00 68 1012.5
20260507160003 62 139 7.0 16.0 0.00 0.00 0.00 65 1012.6
20260507155717 62 129 7.0 16.0 0.00 0.00 0.00 66 1012.7
20260507155003 62 117 6.0 12.0 0.00 0.00 0.00 67 1012.7
20260507154717 62 136 6.0 14.0 0.00 0.00 0.00 67 1012.8
20260507154003 62 157 7.0 14.0 0.00 0.00 0.00 67 1012.6
20260507153504 62 136 8.0 14.0 0.00 0.00 0.00 67 1012.7
20260507153218 62 132 8.0 19.0 0.00 0.00 0.00 66 1012.9
20260507152503 62 157 8.0 19.0 0.00 0.00 0.00 66 1012.6
20260507152003 63 156 8.0 16.0 0.00 0.00 0.00 65 1012.7
20260507151503 63 143 8.0 16.0 0.00 0.00 0.00 64 1012.7
20260507151003 64 144 8.0 16.0 0.00 0.00 0.00 62 1012.8
20260507150503 64 154 7.0 16.0 0.00 0.00 0.00 61 1012.9
20260507150218 64 149 6.0 15.0 0.00 0.00 0.00 60 1012.9
20260507145503 64 106 5.0 13.0 0.00 0.00 0.00 59 1012.3
20260507145003 64 116 5.0 10.0 0.00 0.00 0.00 60 1012.6
20260507144503 64 112 5.0 10.0 0.00 0.00 0.00 60 1012.3
20260507144003 63 106 6.0 10.0 0.00 0.00 0.00 60 1012.7
20260507143503 65 108 5.0 11.0 0.00 0.00 0.00 59 1012.6
20260507143003 64 111 5.0 12.0 0.00 0.00 0.00 61 1012.7
20260507142503 64 111 6.0 13.0 0.00 0.00 0.00 60 1012.7
20260507142003 64 134 6.0 13.0 0.00 0.00 0.00 60 1012.9
20260507141503 64 154 6.0 13.0 0.00 0.00 0.00 61 1012.9
20260507141003 64 148 6.0 13.0 0.00 0.00 0.00 60 1013.2
20260507140503 63 134 7.0 16.0 0.00 0.00 0.00 61 1013.1
20260507140003 64 125 7.0 16.0 0.00 0.00 0.00 60 1013.1
20260507135503 63 125 7.0 14.0 0.00 0.00 0.00 60 1013.2
20260507135003 63 119 7.0 14.0 0.00 0.00 0.00 59 1013.4
20260507134503 63 119 7.0 14.0 0.00 0.00 0.00 59 1013.6
20260507134003 64 137 6.0 14.0 0.00 0.00 0.00 60 1013.5
20260507133503 64 141 6.0 14.0 0.00 0.00 0.00 59 1013.4
20260507133003 64 133 6.0 14.0 0.00 0.00 0.00 58 1013.6
20260507132503 64 141 8.0 16.0 0.00 0.00 0.00 58 1013.7
20260507132003 63 142 8.0 17.0 0.00 0.00 0.00 60 1013.7
20260507131718 63 140 8.0 17.0 0.00 0.00 0.00 58 1013.7
20260507131003 63 133 8.0 18.0 0.00 0.00 0.00 58 1013.8
20260507130503 64 120 8.0 20.0 0.00 0.00 0.00 57 1013.9
20260507130004 63 134 9.0 21.0 0.00 0.00 0.00 60 1013.9
20260507125503 64 145 9.0 21.0 0.00 0.00 0.00 61 1013.9
20260507125003 63 146 9.0 18.0 0.00 0.00 0.00 61 1013.9
20260507124503 63 154 10.0 18.0 0.00 0.00 0.00 61 1014.1
20260507124003 63 148 9.0 18.0 0.00 0.00 0.00 60 1014.1
20260507123503 63 146 9.0 20.0 0.00 0.00 0.00 60 1014.1
20260507123003 63 156 9.0 20.0 0.00 0.00 0.00 60 1014.0
20260507122718 63 160 9.0 20.0 0.00 0.00 0.00 61 1014.1
20260507122004 63 151 8.0 18.0 0.00 0.00 0.00 61 1014.3
20260507121503 63 139 8.0 17.0 0.00 0.00 0.00 61 1014.1
20260507121003 63 131 9.0 20.0 0.00 0.00 0.00 61 1014.0
20260507120503 63 130 10.0 22.0 0.00 0.00 0.00 60 1014.2
20260507120217 63 130 10.0 22.0 0.00 0.00 0.00 60 1014.3
20260507115718 63 141 9.0 19.0 0.00 0.00 0.00 61 1014.1
20260507115003 63 138 9.0 18.0 0.00 0.00 0.00 60 1014.2
20260507114503 63 150 8.0 18.0 0.00 0.00 0.00 60 1013.9
20260507114003 64 145 7.0 16.0 0.00 0.00 0.00 58 1013.9
20260507113503 65 131 8.0 16.0 0.00 0.00 0.00 60 1013.9
20260507113003 63 135 8.0 18.0 0.00 0.00 0.00 58 1014.1
20260507112503 63 134 8.0 19.0 0.00 0.00 0.00 59 1014.1
20260507112003 64 132 8.0 19.0 0.00 0.00 0.00 60 1014.0
20260507111718 63 138 8.0 16.0 0.00 0.00 0.00 63 1014.0
20260507111003 63 135 9.0 16.0 0.00 0.00 0.00 62 1014.3
20260507110503 62 141 8.0 16.0 0.00 0.00 0.00 63 1014.3
20260507110216 64 162 8.0 15.0 0.00 0.00 0.00 63 1014.3
20260507105503 62 186 7.0 15.0 0.00 0.00 0.00 66 1014.3
20260507105003 62 194 8.0 16.0 0.00 0.00 0.00 64 1014.7
20260507104504 62 189 8.0 16.0 0.00 0.00 0.00 66 1014.6
20260507104003 64 162 7.0 15.0 0.00 0.00 0.00 62 1014.4
20260507103503 63 149 7.0 14.0 0.00 0.00 0.00 63 1014.5
20260507103003 63 147 7.0 14.0 0.00 0.00 0.00 65 1014.5
20260507102717 63 152 7.0 14.0 0.00 0.00 0.00 66 1014.4
20260507102003 63 176 7.0 13.0 0.00 0.00 0.00 64 1014.5
20260507101503 63 140 6.0 13.0 0.00 0.00 0.00 64 1014.5
20260507101003 63 140 5.0 11.0 0.00 0.00 0.00 61 1014.7
20260507100503 63 151 5.0 12.0 0.00 0.00 0.00 61 1014.5
20260507100004 62 143 5.0 12.0 0.00 0.00 0.00 63 1014.8
20260507095503 62 141 4.0 11.0 0.00 0.00 0.00 63 1014.7
20260507095003 62 140 6.0 13.0 0.00 0.00 0.00 64 1014.6
20260507094717 62 135 6.0 13.0 0.00 0.00 0.00 64 1014.7
20260507094003 64 117 5.0 11.0 0.00 0.00 0.00 62 1014.7
20260507093503 62 119 5.0 11.0 0.00 0.00 0.00 65 1014.9
20260507093003 61 135 4.0 10.0 0.00 0.00 0.00 67 1014.8
20260507092503 61 132 5.0 11.0 0.00 0.00 0.00 68 1014.8
20260507092003 61 124 6.0 11.0 0.00 0.00 0.00 68 1014.7
20260507091503 61 135 6.0 13.0 0.00 0.00 0.00 69 1014.8
20260507091218 61 153 5.0 13.0 0.00 0.00 0.00 69 1014.9
20260507090503 61 169 4.0 8.0 0.00 0.00 0.00 69 1014.4
20260507090004 61 146 5.0 9.0 0.00 0.00 0.00 66 1014.6
20260507085503 61 121 4.0 9.0 0.00 0.00 0.00 67 1014.6
20260507085003 62 92 2.0 5.0 0.00 0.00 0.00 68 1014.6
20260507084717 62 89 2.0 5.0 0.00 0.00 0.00 68 1014.6
20260507084003 61 139 3.0 8.0 0.00 0.00 0.00 70 1014.6
20260507083503 61 160 2.0 8.0 0.00 0.00 0.00 70 1014.8
20260507083004 61 145 2.0 4.0 0.00 0.00 0.00 68 1014.6
20260507082503 61 81 2.0 7.0 0.00 0.00 0.00 69 1014.7
20260507082003 61 88 3.0 7.0 0.00 0.00 0.00 70 1014.8
20260507081503 60 82 3.0 6.0 0.00 0.00 0.00 70 1014.9
20260507081003 61 80 3.0 6.0 0.00 0.00 0.00 69 1014.7
20260507080503 60 117 2.0 5.0 0.00 0.00 0.00 70 1014.6
20260507080003 60 103 3.0 7.0 0.00 0.00 0.00 74 1014.8
20260507075503 60 95 4.0 7.0 0.00 0.00 0.00 74 1014.8
20260507075003 60 89 3.0 7.0 0.00 0.00 0.00 73 1014.7
20260507074503 59 91 4.0 7.0 0.00 0.00 0.00 74 1014.8
20260507074003 60 102 4.0 7.0 0.00 0.00 0.00 74 1014.7
20260507073503 59 103 4.0 7.0 0.00 0.00 0.00 74 1014.9
20260507073217 59 112 3.0 6.0 0.00 0.00 0.00 75 1014.9
20260507072503 58 172 1.0 3.0 0.00 0.00 0.00 79 1015.0
20260507072003 58 201 1.0 3.0 0.00 0.00 0.00 79 1014.9
20260507071504 58 169 2.0 5.0 0.00 0.00 0.00 80 1014.9
20260507071003 58 148 2.0 5.0 0.00 0.00 0.00 79 1014.7
20260507070503 58 130 2.0 4.0 0.00 0.00 0.00 79 1014.6
20260507070217 58 135 1.0 4.0 0.00 0.00 0.00 79 1014.7
20260507065718 58 93 1.0 4.0 0.00 0.00 0.00 78 1014.5
20260507065003 57 149 1.0 3.0 0.00 0.00 0.00 81 1014.5
20260507064718 56 176 1.0 3.0 0.00 0.00 0.00 82 1014.7
20260507064003 55 213 1.0 2.0 0.00 0.00 0.00 83 1014.5
20260507063503 54 207 0.0 2.0 0.00 0.00 0.00 83 1014.4
20260507063003 54 201 0.0 2.0 0.00 0.00 0.00 85 1014.4
20260507062503 53 190 0.0 2.0 0.00 0.00 0.00 87 1014.3
20260507062003 52 228 0.0 2.0 0.00 0.00 0.00 87 1014.2
20260507061718 51 331 0.0 2.0 0.00 0.00 0.00 88 1014.3
20260507061003 51 284 0.0 2.0 0.00 0.00 0.00 88 1014.1
20260507060503 50 121 1.0 3.0 0.00 0.00 0.00 89 1014.2
20260507060217 51 112 1.0 3.0 0.00 0.00 0.00 89 1014.4
20260507055503 50 149 0.0 2.0 0.00 0.00 0.00 90 1014.4
20260507055216 49 195 0.0 2.0 0.00 0.00 0.00 90 1014.2
20260507054503 49 28 1.0 2.0 0.00 0.00 0.00 91 1014.3
20260507054003 50 21 0.0 2.0 0.00 0.00 0.00 91 1014.3
20260507053717 48 288 0.0 2.0 0.00 0.00 0.00 91 1014.2
20260507053004 47 210 0.0 2.0 0.00 0.00 0.00 91 1014.3
20260507052717 47 150 0.0 2.0 0.00 0.00 0.00 91 1014.1
20260507052003 47 171 0.0 3.0 0.00 0.00 0.00 92 1014.0
20260507051504 47 173 1.0 3.0 0.00 0.00 0.00 92 1013.8
20260507051003 47 250 0.0 2.0 0.00 0.00 0.00 92 1013.7
20260507050503 47 346 0.0 2.0 0.00 0.00 0.00 92 1013.9
20260507050003 47 345 0.0 2.0 0.00 0.00 0.00 92 1013.9
20260507045503 47 149 1.0 3.0 0.00 0.00 0.00 92 1013.8
20260507045218 47 107 1.0 3.0 0.00 0.00 0.00 91 1013.9
20260507044503 47 106 2.0 4.0 0.00 0.00 0.00 92 1013.8
20260507044218 47 126 1.0 4.0 0.00 0.00 0.00 92 1013.8
20260507043503 47 249 1.0 2.0 0.00 0.00 0.00 92 1013.6
20260507043003 47 181 1.0 4.0 0.00 0.00 0.00 91 1013.6
20260507042503 47 164 1.0 4.0 0.00 0.00 0.00 92 1013.6
20260507042003 47 173 1.0 2.0 0.00 0.00 0.00 91 1013.8
20260507041503 48 18 1.0 2.0 0.00 0.00 0.00 92 1013.7
20260507041003 48 334 1.0 2.0 0.00 0.00 0.00 92 1013.7
20260507040717 48 333 1.0 2.0 0.00 0.00 0.00 92 1013.8
20260507040003 48 117 1.0 2.0 0.00 0.00 0.00 91 1013.7
20260507035503 48 161 1.0 2.0 0.00 0.00 0.00 92 1013.6
20260507035003 48 185 0.0 2.0 0.00 0.00 0.00 91 1013.9
20260507034503 48 215 1.0 4.0 0.00 0.00 0.00 91 1013.7
20260507034003 48 2 1.0 4.0 0.00 0.00 0.00 91 1013.7
20260507033503 49 348 2.0 4.0 0.00 0.00 0.00 92 1013.7
20260507033003 48 286 1.0 3.0 0.00 0.00 0.00 91 1013.9
20260507032503 49 107 1.0 3.0 0.00 0.00 0.00 91 1014.0
20260507032003 49 102 1.0 3.0 0.00 0.00 0.00 92 1013.7
20260507031503 49 50 1.0 3.0 0.00 0.00 0.00 91 1013.9
20260507031218 49 351 1.0 2.0 0.00 0.00 0.00 91 1013.8
20260507030503 49 288 1.0 2.0 0.00 0.00 0.00 91 1013.8
20260507030003 49 313 1.0 3.0 0.00 0.00 0.00 91 1014.0
20260507025503 50 46 1.0 3.0 0.00 0.00 0.00 91 1013.9
20260507025217 50 65 1.0 3.0 0.00 0.00 0.00 91 1013.7
20260507024716 50 268 1.0 2.0 0.00 0.00 0.00 91 1013.6
20260507024003 50 74 2.0 4.0 0.00 0.00 0.00 91 1013.6
20260507023503 51 99 2.0 4.0 0.00 0.00 0.00 91 1013.8
20260507023003 51 142 1.0 4.0 0.00 0.00 0.00 91 1013.8
20260507022718 51 213 0.0 2.0 0.00 0.00 0.00 91 1013.7
20260507022217 51 309 0.0 2.0 0.00 0.00 0.00 91 1013.8
20260507021718 51 55 1.0 3.0 0.00 0.00 0.00 91 1013.9
20260507021003 51 117 1.0 4.0 0.00 0.00 0.00 91 1013.7
20260507020503 51 129 1.0 4.0 0.00 0.00 0.00 91 1013.8
20260507020003 51 139 1.0 4.0 0.00 0.00 0.00 91 1014.0
20260507015718 51 175 0.0 2.0 0.00 0.00 0.00 91 1014.1
20260507015217 51 266 1.0 3.0 0.00 0.00 0.00 91 1013.8
20260507014503 51 100 2.0 4.0 0.00 0.00 0.00 91 1014.1
20260507014217 52 120 2.0 4.0 0.00 0.00 0.00 91 1013.9
20260507013503 52 139 1.0 4.0 0.00 0.00 0.00 91 1014.0
20260507013003 52 333 1.0 2.0 0.00 0.00 0.00 91 1014.1
20260507012503 52 313 1.0 2.0 0.00 0.00 0.00 90 1014.0
20260507012003 52 281 1.0 3.0 0.00 0.00 0.00 90 1014.0
20260507011503 52 133 1.0 3.0 0.00 0.00 0.00 90 1013.9
20260507010503 53 26 2.0 4.0 0.00 0.00 0.00 90 1013.9
20260507010003 53 311 2.0 4.0 0.00 0.00 0.00 90 1013.8
20260507005718 53 288 2.0 4.0 0.00 0.00 0.00 90 1014.3
20260507005003 53 357 1.0 4.0 0.00 0.00 0.00 90 1014.0
20260507004718 54 89 2.0 4.0 0.00 0.00 0.00 90 1013.9
20260507004003 54 107 2.0 4.0 0.00 0.00 0.00 90 1014.1
20260507003503 54 33 2.0 4.0 0.00 0.00 0.00 89 1014.0
20260507003003 54 355 2.0 4.0 0.00 0.00 0.00 89 1014.1
20260507002503 54 311 1.0 4.0 0.00 0.00 0.00 89 1014.2
20260507002003 54 336 2.0 4.0 0.00 0.00 0.00 89 1014.2
20260507001503 55 10 2.0 4.0 0.00 0.00 0.00 89 1014.4
20260507001003 55 33 1.0 4.0 0.00 0.00 0.00 88 1014.2
20260507000503 55 29 1.0 4.0 0.00 0.00 0.00 88 1014.3
20260507000003 56 10 2.0 6.0 0.00 0.00 0.00 88 1014.4
20260506235503 56 356 2.0 6.0 0.00 0.00 0.00 88 1014.1
20260506235003 56 301 1.0 3.0 0.00 0.00 0.00 88 1014.3